Voltar ao catálogo

STARLINK-31528

AtivoComunicaçõesVLEO
NORAD 59010·PAYLOAD·🇺🇸 United States

Lançado Feb 23, 2024 de Vandenberg Space Force Base

Loading…

Próximas Passagens (próximas 24 horas)

TLE

AtualizadoSource: CelesTrak SupGP

Época: Sep 14, 2026, 20:36 UTC

1 59010C 24036N   26257.85881944  .00029610  00000+0  87521-3 0  2579
2 59010  53.1569 278.4114 0001169  86.6586 167.6318 15.34362776    16

Acompanhe STARLINK-31528 em tempo real com AllMySat

Download on the App Store